Weather in Berezovka

Russia / Penza Oblast     52°52′50″N   46°47′17″E
temp.,
°C
wind,
m/s
gust,
m/s
humid.,
%
clouds,
%
prec.,
mm/h
press.,
hPa
HPBL,
m
9 may, sun
sun900:00+11s247890 0.0 101273
03:00+10se31076100 0.0 1012176
06:00+13sse51362100 0.0 1010424
09:00+16sse51164100 0.0 1010606
12:00+16s61362100 0.0 1010785
15:00+20s61346100 0.0 10101883
18:00+18s51054100 0.0 1010996
21:00+13sw116998 0.0 101212
10 may, mon
mon1000:00+11n4789100 0.1 1012207
03:00+11nne3790100 0.2 1014215
06:00+12ne3783100 0.0 1014253
09:00+16ene4660100 0.0 1014404
12:00+20e4848100 0.0 10151077
15:00+22e5941100 0.0 10151774
18:00+20ene51250100 0.0 1016769
21:00+17ene51458100 0.0 1018650
11 may, tue
tue1100:00+16ene61560100 0.0 1018562
03:00+15ene51562100 0.0 1019631
06:00+15e5126471 0.0 1021743
09:00+18se575993 0.0 10231034
12:00+20se465253 0.1 10231555
15:00+20se575998 1.1 10241107
18:00+17sse1278100 1.7 1024354
21:00+13sw2399100 10.6 1025169
12 may, wed
wed1200:00+13e3796100 5.8 1026375
03:00+13ene41296100 7.1 1025446
06:00+13e41193100 0.1 1026425
09:00+14e41086100 0.1 1026383
12:00+14e41177100 0.0 1026531
15:00+15ese41174100 0.0 1026756
18:00+15ese4136668 0.0 1026549
21:00+12e413765 0.0 1025287
13 may, thu
thu1300:00+14e4136396 0.0 1025364
03:00+13e4136398 0.0 1025330
06:00+14e5136118 0.0 1025374
09:00+16ese51259100 0.0 1025477
12:00+21ese61147100 0.0 1024841
15:00+21ese5954100 0.0 10241137
18:00+19se51158100 0.0 1024666
21:00+17se31163100 0.0 1024284